Location: Bari
(41.1330°N, 16.8500°E)
Time: 02:34:42
(UTC+02:00)

ISS - Pass Details

Date: 15 May 2021
Orbit: 417 x 422 km, 51.6° (Epoch: 14 June)

Event Time Altitude Azimuth Distance (km) Brightness Sun altitude
Rises 03:41:06 0° 308° (NW) 2,373 0.0 -17.9°
Reaches altitude 10° 03:43:14 10° 313° (NW) 1,507 -0.9 -17.7°
Maximum altitude 03:46:33 53° 31° (NNE) 526 -2.9 -17.2°
Drops below altitude 10° 03:49:52 10° 110° (ESE) 1,502 -0.6 -16.8°
Sets 03:52:00 0° 115° (ESE) 2,364 0.3 -16.5°
